Location: Seven Kings
(51.5667°N, 0.1000°E)
Time: 12:18:32
(UTC+00:00)

Lacrosse 5 - Pass Details

Date: 29 October 2020
Orbit: 716 x 723 km, 57.0° (Epoch: 06 November)

Event Time Altitude Azimuth Distance (km) Brightness Sun altitude
Rises 19:53:38 0° 299° (WNW) 3,126 6.3 -30.8°
Reaches altitude 10° 19:56:01 10° 300° (WNW) 2,205 5.2 -31.2°
Enters shadow 19:59:23 43° 302° (WNW) 1,009 2.9 -31.7°
